STARLINK-32937, 63148

Orbit data source: Space-Track

STARLINK-32937, 63148 is a payload satellite owned by SpaceX/Seattle (US) in LEO that was launched on Mon, 03 Mar 2025 UTC via an FALCON 9 launch vehicle from the Air Force Eastern Test Range (AFETR). Payload-class satellites include a variety of spacecraft equipped with specific instruments for various scientific and technological missions. These include communications satellites like Starlink; space stations such as the ISS; scientific satellites like the Hubble; Earth observation satellites from companies like Planet Labs, Umbra, and HawkEye 360; GPS; miniature CubeSats for education and research; and military/defense satellites.

Loading next visibility...
Identifier
63148, 2025-043S
Orbit
LEO
Country
Flag of USUS
Related business
Manufacturer
SpaceX/Seattle
Mission
Operational Commercial Communications
Bus & Motor
STARLINK V2M, Unknown motor
Mass
730 kg wet, ~700 kg dry
Launch date (UTC)
2025-03-03 (1 year ago)
Launch vehicle
FALCON 9
Launch site
Air Force Eastern Test Range (AFETR)
Object type
Payload
Rocket body
Debris
Shape & HBR
Box + 2 Pan, 17.7 m
Radar Cross Section
33.884 m², Large (>1 m²)

Expand to show TLE details & history
Last TLE update: 9 hours ago

TLE from 9 hours ago
0 STARLINK-32937
1 63148U 25043S   26192.99310772  .00011840  00000-0  43900-3 0  9997
2 63148  42.9988  34.1750 0001222 333.5425  26.5364 15.27586313 76376
Epoch: 2026-07-11T23:50Z
TLE epoch observation values (Epoch: 2026-07-11T23:50:04.507Z)
Latitude
-0.00005°
Longitude
106.75782°
Altitude
482.055 km
Speed
7.627 km/s
True Right ascension
02h 16m 41s
True Declination
0° 00' 00"
Sunlit
Object was in daylight at epoch
Visualization orbit readout
Latitude
Unknown
Longitude
Unknown
Altitude
Unknown
Speed
Unknown
Apparent Right ascension
Unknown
Apparent Declination
Unknown
Sunlit
N/A
Visualization observer readout
Local Sidereal Time
21:08:47
Azimuth
Unknown
Elevation
Unknown
Doppler factor
Unknown
Orbital elements
Apogee altitude
485.814 km
Perigee altitude
484.137 km
Semi-major axis
6,863.113 km
Eccentricity
0.00012
Inclination
42.9988°
RAAN
34.175°
Arg. of periapsis
333.5425°
True anomaly
26.54266°
Mean anomaly
26.5364°
Eccentric anomaly
26.53953°
Mean motion
3.81735 °/min
Orbital period
94.31 mins
BSTAR
0.000439
Loading maneuver chart data...
Computing Atmospheric mass density...
Loading historical data...
Loading historical data...
Loading historical data...
Loading historical data...
Loading historical data...
Loading historical data...
Loading historical data...

Documentation

Showing up to 5 results
|